Regional Weather Roundup
Issued by NWS Sioux Falls, SD

Home | Current Version | Previous Version | Text Only | Print | Product List | Glossary Off
Versions: 1 2 3 4 5 6 7 8 9 10 11 12 13 14 15 16 17 18 19 20 21 22 23 24 25 26 27 28 29 30 31 32 33 34 35 36 37 38 39 40 41 42 43 44 45 46 47 48 49 50

000
ASUS43 KFSD 270510
RWRFSD

WEATHER ROUNDUP FOR SE SOUTH DAKOTA/SW MINNESOTA/NW IOWA
NATIONAL WEATHER SERVICE SIOUX FALLS SD
1200 AM CDT TUE SEP 27 2016

NOTE: "FAIR" INDICATES FEW OR NO CLOUDS BELOW 12,000 FEET WITH NO
SIGNIFICANT WEATHER AND OR OBSTRUCTIONS TO VISIBILITY.


SDZ038>040-050-052>070-270600-
SOUTHEAST SOUTH DAKOTA

CITY           SKY/WX    TMP DP  RH WIND       PRES   REMARKS
BROOKINGS      CLEAR     46  36  68 NW7       30.02S
CHAMBERLAIN    CLEAR     47  40  78 CALM      30.10S
HURON          CLEAR     44  35  70 NW6       30.05S
MADISON        FAIR      46  34  61 NW12      30.04S
MITCHELL       CLEAR     50  38  63 W7        30.07S
SIOUX FALLS    CLEAR     51  35  54 W9        30.03F
WINNER         FAIR      54  41  61 W5        30.12S
YANKTON        CLEAR     50  43  76 NW9       30.05F
$$

MNZ071-072-080-081-089-090-097-098-270600-
SOUTHWEST MINNESOTA

CITY           SKY/WX    TMP DP  RH WIND       PRES   REMARKS
FAIRMONT       CLEAR     51  37  58 W8        29.98S
JACKSON        CLEAR     54  32  43 W12       30.00S
LUVERNE        CLEAR     48  32  53 NW8       30.03S
MARSHALL       CLEAR     49  37  63 W10       29.99
MONTEVIDEO     CLEAR     50  37  62 NW7       29.97F
PIPESTONE      CLEAR     50  34  53 NW5       30.02F
REDWOOD FALLS  CLEAR     51  36  56 W9        29.95F
TRACY          CLEAR     53  38  58 W5        29.99S
WINDOM         CLEAR     46  37  71 W6        29.99S
WORTHINGTON    CLEAR     50  36  58 W8        30.02S
$$

IAZ001>003-012>014-020>022-031-032-NEZ013-014-SDZ071-270600-
NORTHWEST IOWA

CITY           SKY/WX    TMP DP  RH WIND       PRES   REMARKS
CHEROKEE       CLEAR     50  42  73 W3        30.03F
DENISON        CLEAR     48  45  87 CALM      30.03S
ESTHERVILLE    CLEAR     47  37  68 W8        29.99F
LE MARS        CLEAR     52  43  71 CALM      30.05F
ORANGE CITY    CLEAR     50  43  76 NW5       30.04F
SHELDON        CLEAR     46  39  76 W8        30.02S
SIOUX CITY     CLEAR     53  44  71 NW3       30.05F
SPENCER        CLEAR     42  38  85 W6        30.02F
STORM LAKE     CLEAR     48  43  81 W10       30.04S
$$

ABBREVIATIONS USED IN REMARKS
   TC - TEMPERATURE IN CELSIUS
  WCI - WIND CHILL INDEX
   HX - HEAT INDEX
  VSB - VISIBILITY





USA.gov is the U.S. government's official web portal to all federal, state and local government web resources and services.